| time (UTC) | temp F | wind direction | speed knots | gust knots | rain 1hr in | rain 24hr in | rain mn in | humidity % | barometer mb |
| 20260505011537 | 77 | 0 | 0.0 | 7.8 | 0.00 | 0.00 | 0.00 | 53 | 1002.4 |
| 20260505011025 | 77 | 280 | 0.0 | 7.8 | 0.00 | 0.00 | 0.00 | 53 | 1002.5 |
| 20260505010525 | 78 | 0 | 0.0 | 7.8 | 0.00 | 0.00 | 0.00 | 52 | 1002.4 |
| 20260505010052 | 78 | 0 | 0.0 | 7.0 | 0.00 | 0.00 | 0.00 | 52 | 1002.5 |
| 20260505005526 | 78 | 0 | 0.0 | 7.0 | 0.00 | 0.00 | 0.00 | 51 | 1002.4 |
| 20260505005028 | 78 | 0 | 0.0 | 7.0 | 0.00 | 0.00 | 0.00 | 51 | 1002.4 |
| 20260505004541 | 79 | 0 | 0.9 | 9.6 | 0.00 | 0.00 | 0.00 | 50 | 1002.4 |
| 20260505004024 | 79 | 0 | 0.0 | 10.4 | 0.00 | 0.00 | 0.00 | 50 | 1002.4 |
| 20260505003524 | 79 | 304 | 1.7 | 13.0 | 0.00 | 0.00 | 0.00 | 50 | 1002.3 |
| 20260505003047 | 79 | 0 | 0.0 | 13.0 | 0.00 | 0.00 | 0.00 | 49 | 1002.3 |
| 20260505002527 | 79 | 0 | 0.0 | 9.6 | 0.00 | 0.00 | 0.00 | 49 | 1002.4 |
| 20260505002025 | 79 | 0 | 0.9 | 9.6 | 0.00 | 0.00 | 0.00 | 49 | 1002.3 |
| 20260505001538 | 80 | 0 | 0.0 | 7.0 | 0.00 | 0.00 | 0.00 | 50 | 1002.2 |
| 20260505001025 | 80 | 0 | 0.0 | 13.9 | 0.00 | 0.00 | 0.00 | 49 | 1002.2 |
| 20260505000525 | 80 | 0 | 0.0 | 13.9 | 0.00 | 0.00 | 0.00 | 49 | 1002.3 |
| 20260505000044 | 80 | 303 | 0.9 | 10.4 | 0.00 | 0.00 | 0.00 | 49 | 1002.3 |
| 20260504235525 | 80 | 0 | 0.0 | 8.7 | 0.00 | 0.00 | 0.00 | 49 | 1002.3 |
| 20260504235025 | 81 | 302 | 0.9 | 12.2 | 0.00 | 0.00 | 0.00 | 49 | 1002.3 |
| 20260504234535 | 81 | 0 | 0.0 | 17.4 | 0.00 | 0.00 | 0.00 | 48 | 1002.3 |
| 20260504234026 | 81 | 0 | 1.7 | 17.4 | 0.00 | 0.00 | 0.00 | 48 | 1002.3 |
| 20260504233526 | 81 | 267 | 3.5 | 17.4 | 0.00 | 0.00 | 0.00 | 48 | 1002.3 |
| 20260504233050 | 81 | 314 | 0.9 | 7.0 | 0.00 | 0.00 | 0.00 | 49 | 1002.3 |
| 20260504232525 | 82 | 0 | 0.0 | 6.1 | 0.00 | 0.00 | 0.00 | 49 | 1002.3 |
| 20260504232025 | 82 | 0 | 0.0 | 15.6 | 0.00 | 0.00 | 0.00 | 50 | 1002.5 |
| 20260504231539 | 82 | 248 | 4.3 | 18.2 | 0.00 | 0.00 | 0.00 | 49 | 1002.3 |
| 20260504231023 | 82 | 295 | 3.5 | 18.2 | 0.00 | 0.00 | 0.00 | 49 | 1002.5 |
| 20260504230527 | 82 | 260 | 2.6 | 16.5 | 0.00 | 0.00 | 0.00 | 48 | 1002.5 |
| 20260504230055 | 82 | 0 | 0.9 | 14.8 | 0.00 | 0.00 | 0.00 | 49 | 1002.4 |
| 20260504225524 | 83 | 305 | 0.9 | 14.8 | 0.00 | 0.00 | 0.00 | 49 | 1002.4 |
| 20260504225024 | 82 | 263 | 0.0 | 4.3 | 0.00 | 0.00 | 0.00 | 50 | 1002.5 |
| 20260504224555 | 82 | 0 | 0.0 | 4.3 | 0.00 | 0.00 | 0.00 | 50 | 1002.5 |
| 20260504224024 | 81 | 0 | 0.0 | 8.7 | 0.00 | 0.00 | 0.00 | 50 | 1002.5 |
| 20260504223523 | 81 | 0 | 0.9 | 21.7 | 0.00 | 0.00 | 0.00 | 50 | 1002.6 |
| 20260504223037 | 81 | 0 | 0.0 | 21.7 | 0.00 | 0.00 | 0.00 | 49 | 1002.6 |
| 20260504222525 | 81 | 210 | 0.9 | 12.2 | 0.00 | 0.00 | 0.00 | 49 | 1002.7 |
| 20260504222026 | 81 | 259 | 0.9 | 13.9 | 0.00 | 0.00 | 0.00 | 49 | 1002.6 |
| 20260504221534 | 81 | 0 | 0.9 | 13.9 | 0.00 | 0.00 | 0.00 | 50 | 1002.7 |
| 20260504221026 | 81 | 279 | 0.9 | 13.9 | 0.00 | 0.00 | 0.00 | 49 | 1002.7 |
| 20260504220524 | 82 | 0 | 0.0 | 10.4 | 0.00 | 0.00 | 0.00 | 50 | 1002.6 |
| 20260504220033 | 82 | 0 | 0.9 | 11.3 | 0.00 | 0.00 | 0.00 | 50 | 1002.7 |
| 20260504215527 | 82 | 0 | 0.0 | 11.3 | 0.00 | 0.00 | 0.00 | 51 | 1002.7 |
| 20260504215024 | 82 | 307 | 0.0 | 18.2 | 0.00 | 0.00 | 0.00 | 50 | 1002.6 |
| 20260504214544 | 82 | 0 | 2.6 | 18.2 | 0.00 | 0.00 | 0.00 | 50 | 1002.7 |
| 20260504214023 | 83 | 271 | 0.0 | 16.5 | 0.00 | 0.00 | 0.00 | 50 | 1002.7 |
| 20260504213523 | 82 | 309 | 4.3 | 14.8 | 0.00 | 0.00 | 0.00 | 48 | 1002.7 |
| 20260504213039 | 83 | 258 | 2.6 | 13.9 | 0.00 | 0.00 | 0.00 | 49 | 1002.9 |
| 20260504212524 | 83 | 0 | 0.0 | 13.9 | 0.00 | 0.00 | 0.00 | 50 | 1002.8 |
| 20260504212023 | 82 | 0 | 3.5 | 13.9 | 0.00 | 0.00 | 0.00 | 50 | 1002.8 |
| 20260504211537 | 82 | 314 | 0.9 | 14.8 | 0.00 | 0.00 | 0.00 | 52 | 1002.7 |
| 20260504211024 | 82 | 274 | 0.9 | 14.8 | 0.00 | 0.00 | 0.00 | 51 | 1002.8 |
| 20260504210523 | 82 | 0 | 0.0 | 14.8 | 0.00 | 0.00 | 0.00 | 51 | 1002.9 |
| 20260504210050 | 82 | 259 | 0.0 | 8.7 | 0.00 | 0.00 | 0.00 | 51 | 1002.7 |
| 20260504205524 | 82 | 0 | 0.9 | 16.5 | 0.00 | 0.00 | 0.00 | 51 | 1002.8 |
| 20260504205026 | 82 | 0 | 4.3 | 16.5 | 0.00 | 0.00 | 0.00 | 52 | 1003.0 |
| 20260504204547 | 81 | 0 | 0.9 | 16.5 | 0.00 | 0.00 | 0.00 | 51 | 1003.0 |
| 20260504204024 | 81 | 270 | 0.0 | 19.1 | 0.00 | 0.00 | 0.00 | 52 | 1003.0 |
| 20260504203525 | 81 | 257 | 4.3 | 19.1 | 0.00 | 0.00 | 0.00 | 53 | 1003.0 |
| 20260504203044 | 80 | 280 | 0.9 | 12.2 | 0.00 | 0.00 | 0.00 | 54 | 1003.2 |
| 20260504202525 | 80 | 0 | 0.9 | 13.0 | 0.00 | 0.00 | 0.00 | 55 | 1003.1 |
| 20260504202023 | 80 | 0 | 0.9 | 13.0 | 0.00 | 0.00 | 0.00 | 55 | 1003.3 |
| 20260504201544 | 81 | 300 | 0.9 | 13.0 | 0.00 | 0.00 | 0.00 | 54 | 1003.5 |
| 20260504201024 | 80 | 0 | 0.9 | 16.5 | 0.00 | 0.00 | 0.00 | 56 | 1003.6 |
| 20260504200525 | 80 | 0 | 0.0 | 16.5 | 0.00 | 0.00 | 0.00 | 56 | 1003.5 |
| 20260504200050 | 79 | 311 | 3.5 | 14.8 | 0.00 | 0.00 | 0.00 | 54 | 1003.6 |
| 20260504195524 | 80 | 279 | 4.3 | 14.8 | 0.00 | 0.00 | 0.00 | 53 | 1003.9 |
| 20260504195024 | 80 | 299 | 1.7 | 12.2 | 0.00 | 0.00 | 0.00 | 55 | 1004.2 |
| 20260504194544 | 80 | 0 | 1.7 | 12.2 | 0.00 | 0.00 | 0.00 | 56 | 1004.3 |
| 20260504194024 | 80 | 0 | 0.0 | 7.8 | 0.00 | 0.00 | 0.00 | 59 | 1004.3 |
| 20260504193524 | 79 | 255 | 0.0 | 3.5 | 0.00 | 0.00 | 0.00 | 58 | 1004.4 |
| 20260504193044 | 78 | 0 | 0.0 | 4.3 | 0.00 | 0.00 | 0.00 | 60 | 1004.3 |
| 20260504192523 | 77 | 0 | 0.0 | 6.1 | 0.00 | 0.00 | 0.00 | 60 | 1004.3 |
| 20260504192025 | 76 | 0 | 0.0 | 6.1 | 0.00 | 0.00 | 0.00 | 62 | 1004.4 |
| 20260504191539 | 76 | 0 | 0.0 | 1.7 | 0.00 | 0.00 | 0.00 | 64 | 1004.5 |
| 20260504191027 | 75 | 0 | 0.0 | 8.7 | 0.00 | 0.00 | 0.00 | 64 | 1004.6 |
| 20260504190526 | 74 | 0 | 0.0 | 8.7 | 0.00 | 0.00 | 0.00 | 65 | 1004.7 |
| 20260504190040 | 74 | 0 | 0.0 | 2.6 | 0.00 | 0.00 | 0.00 | 64 | 1004.7 |
| 20260504185523 | 73 | 0 | 0.0 | 2.6 | 0.00 | 0.00 | 0.00 | 66 | 1004.9 |
| 20260504185023 | 71 | 0 | 0.0 | 5.2 | 0.00 | 0.00 | 0.00 | 68 | 1004.8 |
| 20260504184540 | 70 | 0 | 0.0 | 13.9 | 0.00 | 0.00 | 0.00 | 68 | 1004.6 |
| 20260504184023 | 69 | 302 | 0.9 | 13.9 | 0.00 | 0.00 | 0.00 | 69 | 1004.3 |
| 20260504183523 | 68 | 279 | 0.9 | 13.9 | 0.00 | 0.00 | 0.00 | 70 | 1003.8 |
| 20260504183038 | 68 | 233 | 1.7 | 13.9 | 0.00 | 0.00 | 0.00 | 71 | 1003.0 |
| 20260504182524 | 68 | 194 | 0.9 | 8.7 | 0.00 | 0.00 | 0.00 | 70 | 1003.7 |
| 20260504182023 | 68 | 0 | 0.0 | 7.0 | 0.00 | 0.00 | 0.00 | 69 | 1004.2 |
| 20260504181533 | 69 | 0 | 0.0 | 2.6 | 0.00 | 0.00 | 0.00 | 68 | 1004.5 |
| 20260504181026 | 69 | 0 | 0.0 | 4.3 | 0.00 | 0.00 | 0.00 | 67 | 1004.5 |
| 20260504180524 | 69 | 0 | 0.0 | 4.3 | 0.00 | 0.00 | 0.00 | 67 | 1004.8 |
| 20260504180041 | 69 | 0 | 0.0 | 16.5 | 0.00 | 0.00 | 0.00 | 65 | 1005.5 |
| 20260504175524 | 69 | 0 | 0.0 | 16.5 | 0.00 | 0.00 | 0.00 | 64 | 1005.6 |
| 20260504175025 | 70 | 0 | 0.0 | 8.7 | 0.00 | 0.00 | 0.00 | 63 | 1005.2 |
| 20260504174540 | 70 | 0 | 0.0 | 8.7 | 0.00 | 0.00 | 0.00 | 62 | 1005.2 |
| 20260504174024 | 70 | 0 | 0.0 | 8.7 | 0.00 | 0.00 | 0.00 | 62 | 1005.4 |
| 20260504173526 | 71 | 0 | 0.0 | 7.0 | 0.00 | 0.00 | 0.00 | 61 | 1005.5 |
| 20260504173039 | 71 | 0 | 0.0 | 7.0 | 0.00 | 0.00 | 0.00 | 62 | 1005.5 |
| 20260504172524 | 71 | 0 | 0.0 | 7.0 | 0.00 | 0.00 | 0.00 | 61 | 1005.6 |
| 20260504172024 | 72 | 160 | 0.0 | 7.0 | 0.00 | 0.00 | 0.00 | 60 | 1005.6 |
| 20260504171538 | 73 | 215 | 0.0 | 5.2 | 0.00 | 0.00 | 0.00 | 60 | 1005.9 |
| 20260504171024 | 73 | 0 | 0.0 | 4.3 | 0.00 | 0.00 | 0.00 | 59 | 1006.1 |
| 20260504170524 | 73 | 292 | 0.0 | 7.0 | 0.00 | 0.00 | 0.00 | 62 | 1006.1 |
| 20260504151024 | 63 | 0 | 0.0 | 2.6 | 0.00 | 0.00 | 0.00 | 73 | 1006.6 |
| 20260504150524 | 63 | 0 | 0.0 | 0.9 | 0.00 | 0.00 | 0.00 | 74 | 1006.7 |
| 20260504141028 | 65 | 0 | 0.0 | 0.9 | 0.00 | 0.00 | 0.00 | 69 | 1007.7 |
| 20260504140524 | 65 | 0 | 0.0 | 0.9 | 0.00 | 0.00 | 0.00 | 68 | 1007.6 |
| 20260504130524 | 65 | 0 | 0.0 | 3.5 | 0.00 | 0.00 | 0.00 | 70 | 1008.0 |
| 20260504110523 | 56 | 0 | 0.0 | 0.9 | 0.00 | 0.00 | 0.00 | 82 | 1008.2 |
| 20260504100527 | 59 | 0 | 0.0 | 0.0 | 0.00 | 0.00 | 0.00 | 75 | 1008.6 |
| 20260504081539 | 58 | 0 | 0.0 | 0.0 | 0.00 | 0.00 | 0.00 | 80 | 1008.7 |
| 20260504081024 | 58 | 0 | 0.0 | 0.0 | 0.00 | 0.00 | 0.00 | 79 | 1008.7 |
| 20260504080526 | 58 | 0 | 0.0 | 0.0 | 0.00 | 0.00 | 0.00 | 80 | 1008.7 |
| 20260504050524 | 63 | 0 | 0.0 | 0.0 | 0.00 | 0.00 | 0.00 | 71 | 1008.8 |
| 20260504045523 | 63 | 0 | 0.0 | 0.0 | 0.00 | 0.00 | 0.00 | 71 | 1008.8 |
| 20260504045032 | 63 | 0 | 0.0 | 0.0 | 0.00 | 0.00 | 0.00 | 71 | 1008.8 |
| 20260504044536 | 63 | 0 | 0.0 | 0.0 | 0.00 | 0.00 | 0.00 | 69 | 1008.9 |
| 20260504044025 | 64 | 0 | 0.0 | 0.0 | 0.00 | 0.00 | 0.00 | 69 | 1008.9 |
| 20260504043523 | 65 | 0 | 0.0 | 0.0 | 0.00 | 0.00 | 0.00 | 67 | 1008.9 |
| 20260504043053 | 65 | 0 | 0.0 | 0.0 | 0.00 | 0.00 | 0.00 | 66 | 1008.8 |
| 20260504042521 | 65 | 0 | 0.0 | 0.0 | 0.00 | 0.00 | 0.00 | 65 | 1009.1 |
| 20260504042024 | 66 | 0 | 0.0 | 0.0 | 0.00 | 0.00 | 0.00 | 65 | 1009.0 |
| 20260504041538 | 66 | 0 | 0.0 | 0.0 | 0.00 | 0.00 | 0.00 | 64 | 1009.1 |
| 20260504041024 | 67 | 0 | 0.0 | 0.0 | 0.00 | 0.00 | 0.00 | 64 | 1009.3 |
| 20260504040524 | 67 | 0 | 0.0 | 0.0 | 0.00 | 0.00 | 0.00 | 62 | 1009.4 |
| 20260504040041 | 68 | 0 | 0.0 | 0.0 | 0.00 | 0.00 | 0.00 | 62 | 1009.6 |
| 20260504035524 | 67 | 0 | 0.0 | 0.0 | 0.00 | 0.00 | 0.00 | 61 | 1009.5 |
| 20260504035024 | 67 | 0 | 0.0 | 0.0 | 0.00 | 0.00 | 0.00 | 64 | 1009.7 |
| 20260504034612 | 68 | 0 | 0.0 | 0.0 | 0.00 | 0.00 | 0.00 | 63 | 1009.9 |
| 20260504034026 | 68 | 0 | 0.0 | 0.0 | 0.00 | 0.00 | 0.00 | 61 | 1009.9 |
| 20260504033523 | 68 | 0 | 0.0 | 0.0 | 0.00 | 0.00 | 0.00 | 61 | 1009.6 |
| 20260504033038 | 68 | 0 | 0.0 | 4.3 | 0.00 | 0.00 | 0.00 | 61 | 1009.5 |
| 20260504032524 | 68 | 0 | 0.0 | 4.3 | 0.00 | 0.00 | 0.00 | 61 | 1009.2 |
| 20260504032025 | 68 | 0 | 0.0 | 0.0 | 0.00 | 0.00 | 0.00 | 61 | 1009.4 |
| 20260504031548 | 68 | 0 | 0.0 | 0.0 | 0.00 | 0.00 | 0.00 | 62 | 1009.5 |
| 20260504031025 | 68 | 0 | 0.0 | 0.0 | 0.00 | 0.00 | 0.00 | 62 | 1009.5 |
| 20260504030524 | 68 | 0 | 0.0 | 0.0 | 0.00 | 0.00 | 0.00 | 63 | 1009.3 |
| 20260504030055 | 68 | 0 | 0.0 | 0.0 | 0.00 | 0.00 | 0.00 | 63 | 1009.6 |
| 20260504025524 | 68 | 0 | 0.0 | 0.0 | 0.00 | 0.00 | 0.00 | 63 | 1009.6 |
| 20260504025024 | 68 | 0 | 0.0 | 0.0 | 0.00 | 0.00 | 0.00 | 64 | 1009.4 |
| 20260504024539 | 68 | 0 | 0.0 | 0.0 | 0.00 | 0.00 | 0.00 | 64 | 1009.4 |
| 20260504024024 | 67 | 0 | 0.0 | 0.0 | 0.00 | 0.00 | 0.00 | 65 | 1009.3 |
| 20260504023524 | 67 | 0 | 0.0 | 0.0 | 0.00 | 0.00 | 0.00 | 66 | 1009.4 |
| 20260504023036 | 68 | 0 | 0.0 | 0.0 | 0.00 | 0.00 | 0.00 | 65 | 1009.3 |
| 20260504022524 | 68 | 0 | 0.0 | 0.0 | 0.00 | 0.00 | 0.00 | 65 | 1009.3 |
| 20260504022024 | 68 | 0 | 0.0 | 0.0 | 0.00 | 0.00 | 0.00 | 64 | 1009.3 |
| 20260504021545 | 68 | 0 | 0.0 | 0.0 | 0.00 | 0.00 | 0.00 | 64 | 1009.3 |
| 20260504021024 | 68 | 0 | 0.0 | 0.0 | 0.00 | 0.00 | 0.00 | 64 | 1009.3 |
| 20260504020523 | 68 | 0 | 0.0 | 0.0 | 0.00 | 0.00 | 0.00 | 63 | 1009.4 |
| 20260504020039 | 68 | 0 | 0.0 | 0.0 | 0.00 | 0.00 | 0.00 | 65 | 1009.2 |
| 20260504015524 | 68 | 0 | 0.0 | 0.0 | 0.00 | 0.00 | 0.00 | 63 | 1009.2 |
| 20260504015026 | 69 | 0 | 0.0 | 0.0 | 0.00 | 0.00 | 0.00 | 64 | 1009.2 |
| 20260504014538 | 69 | 0 | 0.0 | 0.0 | 0.00 | 0.00 | 0.00 | 63 | 1009.2 |
| 20260504014023 | 69 | 0 | 0.0 | 0.0 | 0.00 | 0.00 | 0.00 | 61 | 1009.2 |
| 20260504013523 | 70 | 0 | 0.0 | 0.0 | 0.00 | 0.00 | 0.00 | 60 | 1009.2 |
| 20260504013038 | 70 | 0 | 0.0 | 0.0 | 0.00 | 0.00 | 0.00 | 59 | 1009.2 |
| 20260504012523 | 71 | 0 | 0.0 | 0.0 | 0.00 | 0.00 | 0.00 | 58 | 1009.2 |
| 20260504012024 | 71 | 0 | 0.0 | 0.0 | 0.00 | 0.00 | 0.00 | 58 | 1009.2 |